Regional Weather Roundup
Issued by NWS Albany, NY

Home | Current Version | Previous Version | Text Only | Print | Product List | Glossary On
Versions: 1 2 3 4 5 6 7 8 9 10 11 12 13 14 15 16 17 18 19 20 21 22 23 24 25 26 27 28 29
000
ASUS41 KALY 260310
RWRALY

NEW YORK STATE HOURLY WEATHER ROUNDUP
NATIONAL WEATHER SERVICE ALBANY NY
1100 PM EDT SAT OCT 25 2014

NOTE: "FAIR" INDICATES FEW OR NO CLOUDS BELOW 12,000 FEET WITH NO
SIGNIFICANT WEATHER AND/OR NO OBSTRUCTIONS TO VISIBILITY.

NYZ032-033-038>043-046>054-057>066-NYZ062>081-260400-
EAST


CITY           SKY/WX    TMP DP  RH WIND       PRES   REMARKS
ALBANY         PTCLDY    53  47  79 W8        29.56S
GLENS FALLS    CLEAR     49  46  90 SW8       29.50F FOG
POUGHKEEPSIE   CLOUDY    57  46  66 CALM      29.57F
NEWBURGH       MOCLDY    57  46  67 NW7       29.59R
MONTGOMERY     RAIN      53  48  83 NW3       29.58R
WHITE PLAINS   CLEAR     60  43  53 VRB5      29.57F
ISLIP          PTCLDY    60  48  64 SW10G21   29.58F
NEW YORK CITY  PTCLDY    63  44  50 SW17G28   29.58F
CENTRAL PARK   CLEAR     62  44  51 W8G20     29.61F
$$

NYZ005>009-017-018-044>046-055-056-260400-
CENTRAL


CITY           SKY/WX    TMP DP  RH WIND       PRES   REMARKS
FULTON         CLOUDY    55  46  71 NW12      29.56S
SYRACUSE       CLOUDY    57  48  72 W10       29.54F THUNDER
ROME           MOCLDY    48  47  96 NE3       29.56F FOG
ELMIRA         CLEAR     54  43  66 W7        29.60F
BINGHAMTON     PTCLDY    52  43  71 W9        29.60F
MONTICELLO     MOCLDY    55  43  62 NW12G22   29.60F
$$

NYZ026>034-041>043-260400-
NORTH


CITY           SKY/WX    TMP DP  RH WIND       PRES   REMARKS
WATERTOWN      CLOUDY    56  40  55 W13       29.53F
FORT DRUM      NOT AVBL
MASSENA        LGT RAIN  49  43  80 NW8       29.49R
SARANAC LAKE   MOCLDY    46  45  93 SW10      29.47F
PLATTSBURGH    PTCLDY    47  46  97 S3        29.45F FOG
$$

NYZ001>004-010>016-019>021-260400-
WEST


CITY           SKY/WX    TMP DP  RH WIND       PRES   REMARKS
NIAGARA FALLS  PTCLDY    52  40  63 NW13      29.65
BUFFALO        MOCLDY    53  40  61 NW15      29.65R
DUNKIRK        CLEAR     55  43  63 NW22G30   29.69R
JAMESTOWN      CLEAR     54  39  58 NW21G30   29.69R
WELLSVILLE     PTCLDY    52  44  74 W9        29.64F
ROCHESTER      MOCLDY    53  45  74 W8        29.60S
PENN YAN       CLEAR     55  46  71 SW12      29.56F
$$

             KEY
       WCI = WIND CHILL INDEX
       VSB = VISIBILITY
       HX  = HEAT INDEX
$$



USA.gov is the U.S. government's official web portal to all federal, state and local government web resources and services.